^^
Saratoga-Weather Station Historical Data
Daily Summary for August 03, 2022 Units:  Metric    English   Both
Daily Weekly Monthly Yearly Custom
  High: Low: Average:
Temperature: 35.4 °C 16.8 °C 26.4 °C
Dew Point: 17.3 °C 14.1 °C 15.4 °C
Humidity: 86% 29% 55%
Wind Speed: 13km/h 0km/h 1.5km/h
Wind Gust: 16.1km/h - -
Wind- - SE
Pressure: 1015.2 hPa 1011.2 hPa -
Precipitation: 0.0 mm    
Historical Graphs
 
 
Tabular Data for August 03, 2022
Time Temperature Dew Point Pressure Wind Wind Speed Wind Gust Humidity Rainfall Rate (Hourly) solar
00:03 21.6 °C 15.4 °C 1014.9 hPa Calm     68% 0.0 mm 0 W/m2
00:08 21.4 °C 15.5 °C 1014.9 hPa Calm     69% 0.0 mm 0 W/m2
00:13 21.3 °C 15.4 °C 1014.9 hPa Calm     69% 0.0 mm 0 W/m2
00:18 21.2 °C 15.3 °C 1014.9 hPa Calm     69% 0.0 mm 0 W/m2
00:23 21.1 °C 15.4 °C 1014.9 hPa Calm     70% 0.0 mm 0 W/m2
00:28 20.8 °C 15.3 °C 1014.9 hPa Calm     71% 0.0 mm 0 W/m2
00:33 20.7 °C 15.3 °C 1014.9 hPa Calm     71% 0.0 mm 0 W/m2
00:38 20.6 °C 15.2 °C 1014.9 hPa Calm     71% 0.0 mm 0 W/m2
00:43 20.5 °C 15.3 °C 1014.9 hPa Calm     72% 0.0 mm 0 W/m2
00:48 20.4 °C 15.2 °C 1014.9 hPa Calm     72% 0.0 mm 0 W/m2
00:53 20.3 °C 15.3 °C 1014.9 hPa Calm     73% 0.0 mm 0 W/m2
00:58 20.2 °C 15.2 °C 1014.9 hPa Calm     73% 0.0 mm 0 W/m2
01:03 20.2 °C 15.2 °C 1014.9 hPa Calm     73% 0.0 mm 0 W/m2
01:08 20.2 °C 15.2 °C 1014.9 hPa Calm     73% 0.0 mm 0 W/m2
01:13 20.2 °C 15.2 °C 1014.9 hPa Calm     73% 0.0 mm 0 W/m2
01:18 20.1 °C 15.1 °C 1014.9 hPa Calm     73% 0.0 mm 0 W/m2
01:23 20.1 °C 15.3 °C 1014.9 hPa Calm     74% 0.0 mm 0 W/m2
01:28 20 °C 15.2 °C 1014.9 hPa Calm     74% 0.0 mm 0 W/m2
01:33 19.9 °C 15.1 °C 1014.9 hPa Calm     74% 0.0 mm 0 W/m2
01:38 19.8 °C 15.2 °C 1014.9 hPa Calm     75% 0.0 mm 0 W/m2
01:43 19.7 °C 15.1 °C 1014.9 hPa Calm     75% 0.0 mm 0 W/m2
01:48 19.7 °C 15.1 °C 1015.2 hPa Calm     75% 0.0 mm 0 W/m2
01:53 19.6 °C 15.3 °C 1014.9 hPa Calm   1.6 km/h 76% 0.0 mm 0 W/m2
01:58 19.5 °C 15.2 °C 1015.2 hPa Calm   1.6 km/h 76% 0.0 mm 0 W/m2
02:03 19.4 °C 15.1 °C 1015.2 hPa Calm     76% 0.0 mm 0 W/m2
02:08 19.4 °C 15.1 °C 1015.2 hPa Calm   1.6 km/h 76% 0.0 mm 0 W/m2
02:13 19.3 °C 15 °C 1015.2 hPa Calm     76% 0.0 mm 0 W/m2
02:18 19.3 °C 15.2 °C 1015.2 hPa Calm   1.6 km/h 77% 0.0 mm 0 W/m2
02:23 19.2 °C 15.1 °C 1014.9 hPa Calm     77% 0.0 mm 0 W/m2
02:28 19.2 °C 15.1 °C 1014.9 hPa Calm     77% 0.0 mm 0 W/m2
02:33 19.2 °C 15.1 °C 1014.9 hPa Calm     77% 0.0 mm 0 W/m2
02:38 19.1 °C 15 °C 1014.9 hPa Calm     77% 0.0 mm 0 W/m2
02:43 19 °C 15.1 °C 1014.9 hPa Calm     78% 0.0 mm 0 W/m2
02:48 18.9 °C 15 °C 1014.9 hPa Calm     78% 0.0 mm 0 W/m2
02:53 18.8 °C 15.1 °C 1014.9 hPa Calm     79% 0.0 mm 0 W/m2
02:58 18.8 °C 15.1 °C 1014.9 hPa Calm     79% 0.0 mm 0 W/m2
03:03 18.7 °C 15 °C 1014.9 hPa Calm     79% 0.0 mm 0 W/m2
03:08 18.7 °C 15 °C 1014.9 hPa Calm     79% 0.0 mm 0 W/m2
03:13 18.6 °C 14.9 °C 1014.9 hPa Calm     79% 0.0 mm 0 W/m2
03:18 18.6 °C 15.1 °C 1014.9 hPa Calm     80% 0.0 mm 0 W/m2
03:23 18.5 °C 15 °C 1014.9 hPa Calm     80% 0.0 mm 0 W/m2
03:28 18.4 °C 14.9 °C 1014.6 hPa Calm     80% 0.0 mm 0 W/m2
03:33 18.4 °C 14.9 °C 1014.6 hPa Calm     80% 0.0 mm 0 W/m2
03:38 18.3 °C 14.8 °C 1014.6 hPa Calm     80% 0.0 mm 0 W/m2
03:43 18.2 °C 14.9 °C 1014.6 hPa Calm     81% 0.0 mm 0 W/m2
03:48 18.2 °C 14.9 °C 1014.6 hPa Calm     81% 0.0 mm 0 W/m2
03:53 18.1 °C 14.8 °C 1014.6 hPa Calm     81% 0.0 mm 0 W/m2
03:58 18.1 °C 15 °C 1014.6 hPa Calm     82% 0.0 mm 0 W/m2
04:03 18.1 °C 15 °C 1014.6 hPa Calm     82% 0.0 mm 0 W/m2
04:08 18.1 °C 15 °C 1014.6 hPa Calm     82% 0.0 mm 0 W/m2
04:13 18 °C 14.9 °C 1014.6 hPa Calm     82% 0.0 mm 0 W/m2
04:18 17.9 °C 14.8 °C 1014.6 hPa Calm     82% 0.0 mm 0 W/m2
04:23 17.9 °C 14.8 °C 1014.6 hPa Calm     82% 0.0 mm 0 W/m2
04:28 17.8 °C 14.7 °C 1014.6 hPa Calm     82% 0.0 mm 0 W/m2
04:33 17.7 °C 14.6 °C 1014.6 hPa Calm     82% 0.0 mm 0 W/m2
04:38 17.7 °C 14.8 °C 1014.6 hPa Calm     83% 0.0 mm 0 W/m2
04:43 17.6 °C 14.7 °C 1014.6 hPa Calm     83% 0.0 mm 0 W/m2
04:48 17.6 °C 14.7 °C 1014.6 hPa Calm     83% 0.0 mm 0 W/m2
04:53 17.5 °C 14.6 °C 1014.6 hPa Calm     83% 0.0 mm 0 W/m2
04:58 17.4 °C 14.5 °C 1014.6 hPa Calm     83% 0.0 mm 0 W/m2
05:03 17.3 °C 14.6 °C 1014.6 hPa Calm     84% 0.0 mm 0 W/m2
05:08 17.3 °C 14.6 °C 1014.6 hPa Calm     84% 0.0 mm 0 W/m2
05:13 17.3 °C 14.8 °C 1014.6 hPa Calm     85% 0.0 mm 0 W/m2
05:18 17.3 °C 14.8 °C 1014.6 hPa Calm     85% 0.0 mm 0 W/m2
05:23 17.2 °C 14.7 °C 1014.6 hPa Calm     85% 0.0 mm 0 W/m2
05:28 17.2 °C 14.5 °C 1014.6 hPa Calm     84% 0.0 mm 0 W/m2
05:34 17.1 °C 14.6 °C 1014.6 hPa Calm     85% 0.0 mm 0 W/m2
05:39 17.1 °C 14.6 °C 1014.6 hPa Calm     85% 0.0 mm 0 W/m2
05:44 17 °C 14.5 °C 1014.6 hPa Calm     85% 0.0 mm 0 W/m2
05:49 16.9 °C 14.4 °C 1014.6 hPa Calm     85% 0.0 mm 0 W/m2
05:54 16.8 °C 14.3 °C 1014.6 hPa Calm     85% 0.0 mm 0 W/m2
05:59 16.8 °C 14.4 °C 1014.6 hPa Calm     86% 0.0 mm 0 W/m2
06:04 16.8 °C 14.4 °C 1014.6 hPa Calm     86% 0.0 mm 0 W/m2
06:09 16.8 °C 14.4 °C 1014.6 hPa Calm     86% 0.0 mm 0 W/m2
06:14 16.8 °C 14.4 °C 1014.6 hPa Calm     86% 0.0 mm 5 W/m2
06:19 16.8 °C 14.4 °C 1014.6 hPa Calm     86% 0.0 mm 7 W/m2
06:24 16.9 °C 14.5 °C 1014.6 hPa Calm     86% 0.0 mm 9 W/m2
06:29 16.9 °C 14.5 °C 1014.6 hPa Calm     86% 0.0 mm 11 W/m2
06:34 16.8 °C 14.4 °C 1014.6 hPa Calm     86% 0.0 mm 11 W/m2
06:39 16.9 °C 14.5 °C 1014.6 hPa Calm     86% 0.0 mm 12 W/m2
06:44 16.9 °C 14.5 °C 1014.6 hPa Calm     86% 0.0 mm 14 W/m2
06:49 17 °C 14.6 °C 1014.6 hPa Calm     86% 0.0 mm 16 W/m2
06:54 17.1 °C 14.7 °C 1014.6 hPa Calm     86% 0.0 mm 18 W/m2
06:59 17.1 °C 14.7 °C 1014.6 hPa Calm     86% 0.0 mm 19 W/m2
07:04 17.2 °C 14.7 °C 1014.6 hPa Calm     85% 0.0 mm 19 W/m2
07:09 17.3 °C 14.8 °C 1014.6 hPa Calm     85% 0.0 mm 21 W/m2
07:14 17.4 °C 14.9 °C 1014.6 hPa Calm     85% 0.0 mm 23 W/m2
07:19 17.4 °C 14.9 °C 1014.6 hPa Calm     85% 0.0 mm 23 W/m2
07:24 17.5 °C 14.9 °C 1014.9 hPa Calm     85% 0.0 mm 25 W/m2
07:29 17.7 °C 15.1 °C 1014.6 hPa Calm     85% 0.0 mm 90 W/m2
07:34 17.9 °C 15.3 °C 1014.9 hPa Calm     85% 0.0 mm 104 W/m2
07:39 18.4 °C 15.6 °C 1014.6 hPa Calm     84% 0.0 mm 109 W/m2
07:44 19.3 °C 16 °C 1014.6 hPa South 1.4 km/h 3.2 km/h 81% 0.0 mm 132 W/m2
07:49 20.2 °C 16.2 °C 1014.6 hPa ENE 4.7 km/h 4.8 km/h 78% 0.0 mm 146 W/m2
07:54 20.7 °C 16.3 °C 1014.6 hPa East 1.4 km/h 3.2 km/h 76% 0.0 mm 156 W/m2
07:59 20.9 °C 16.3 °C 1014.6 hPa NE 1.4 km/h 3.2 km/h 75% 0.0 mm 179 W/m2
08:04 21.3 °C 16.5 °C 1014.9 hPa NE 1.4 km/h 3.2 km/h 74% 0.0 mm 195 W/m2
08:09 21.6 °C 16.3 °C 1014.9 hPa ESE 3.2 km/h 4.8 km/h 72% 0.0 mm 209 W/m2
08:14 21.9 °C 16.4 °C 1014.9 hPa East 1.4 km/h 3.2 km/h 71% 0.0 mm 221 W/m2
08:19 22.2 °C 16.5 °C 1014.9 hPa East 1.4 km/h 1.6 km/h 70% 0.0 mm 236 W/m2
08:24 22.4 °C 16.4 °C 1014.6 hPa Calm     69% 0.0 mm 223 W/m2
08:29 22.9 °C 16.7 °C 1014.6 hPa Calm     68% 0.0 mm 135 W/m2
08:34 23.4 °C 16.4 °C 1014.6 hPa Calm     65% 0.0 mm 44 W/m2
08:39 23.6 °C 16.6 °C 1014.6 hPa Calm     65% 0.0 mm 39 W/m2
08:44 23.7 °C 16.7 °C 1014.6 hPa Calm     65% 0.0 mm 39 W/m2
08:49 23.7 °C 16.7 °C 1014.6 hPa Calm   1.6 km/h 65% 0.0 mm 37 W/m2
08:54 24 °C 16.8 °C 1014.9 hPa NNE 1.4 km/h 1.6 km/h 64% 0.0 mm 37 W/m2
08:59 24.1 °C 16.9 °C 1014.9 hPa NNW 1.4 km/h 1.6 km/h 64% 0.0 mm 37 W/m2
09:04 23.9 °C 16.7 °C 1014.9 hPa Calm   1.6 km/h 64% 0.0 mm 39 W/m2
09:09 24 °C 16.8 °C 1014.9 hPa Calm   1.6 km/h 64% 0.0 mm 39 W/m2
09:14 24.2 °C 17 °C 1014.9 hPa ENE 1.4 km/h 3.2 km/h 64% 0.0 mm 39 W/m2
09:19 24.6 °C 16.8 °C 1014.9 hPa ENE 3.2 km/h 3.2 km/h 62% 0.0 mm 37 W/m2
09:24 24.8 °C 16.8 °C 1014.9 hPa ENE 3.2 km/h 3.2 km/h 61% 0.0 mm 37 W/m2
09:29 25.1 °C 17 °C 1014.9 hPa ENE 1.4 km/h 3.2 km/h 61% 0.0 mm 37 W/m2
09:34 25.2 °C 16.6 °C 1014.9 hPa ENE 3.2 km/h 4.8 km/h 59% 0.0 mm 37 W/m2
09:39 25.6 °C 17 °C 1014.9 hPa East 1.4 km/h 3.2 km/h 59% 0.0 mm 39 W/m2
09:44 25.6 °C 16.4 °C 1014.9 hPa NNW 1.4 km/h 3.2 km/h 57% 0.0 mm 37 W/m2
09:49 25.7 °C 16.8 °C 1014.9 hPa East 3.2 km/h 3.2 km/h 58% 0.0 mm 39 W/m2
09:54 26.1 °C 16.9 °C 1014.9 hPa East 3.2 km/h 4.8 km/h 57% 0.0 mm 39 W/m2
09:59 26.4 °C 16.6 °C 1014.9 hPa NE 1.4 km/h 6.4 km/h 55% 0.0 mm 37 W/m2
10:04 26.6 °C 16.8 °C 1014.9 hPa NE 1.4 km/h 6.4 km/h 55% 0.0 mm 53 W/m2
10:09 26.7 °C 16.6 °C 1014.9 hPa NNE 1.4 km/h 4.8 km/h 54% 0.0 mm 86 W/m2
10:14 26.8 °C 16.7 °C 1014.9 hPa NE 1.4 km/h 6.4 km/h 54% 0.0 mm 480 W/m2
10:19 26.9 °C 16.8 °C 1014.9 hPa ESE 1.4 km/h 4.8 km/h 54% 0.0 mm 545 W/m2
10:24 27.2 °C 16.5 °C 1014.9 hPa ENE 4.7 km/h 4.8 km/h 52% 0.0 mm 554 W/m2
10:29 27.4 °C 16.7 °C 1014.9 hPa ESE 3.2 km/h 4.8 km/h 52% 0.0 mm 564 W/m2
10:34 27.6 °C 16.6 °C 1014.6 hPa East 3.2 km/h 4.8 km/h 51% 0.0 mm 580 W/m2
10:39 27.8 °C 17 °C 1014.6 hPa SE 3.2 km/h 4.8 km/h 52% 0.0 mm 592 W/m2
10:44 28.1 °C 17.3 °C 1014.6 hPa ESE 4.7 km/h 4.8 km/h 52% 0.0 mm 603 W/m2
10:49 28.3 °C 16.6 °C 1014.6 hPa SE 3.2 km/h 6.4 km/h 49% 0.0 mm 615 W/m2
10:54 28.6 °C 16.5 °C 1014.6 hPa NE 3.2 km/h 3.2 km/h 48% 0.0 mm 628 W/m2
10:59 28.6 °C 16.5 °C 1014.6 hPa North 1.4 km/h 4.8 km/h 48% 0.0 mm 636 W/m2
11:04 28.6 °C 16.5 °C 1014.6 hPa NE 3.2 km/h 6.4 km/h 48% 0.0 mm 649 W/m2
11:09 28.7 °C 16.6 °C 1014.6 hPa ESE 3.2 km/h 4.8 km/h 48% 0.0 mm 657 W/m2
11:14 28.9 °C 16.5 °C 1014.6 hPa SE 4.7 km/h 4.8 km/h 47% 0.0 mm 668 W/m2
11:19 29.3 °C 16.1 °C 1014.6 hPa East 3.2 km/h 9.7 km/h 45% 0.0 mm 680 W/m2
11:24 29.4 °C 15.5 °C 1014.6 hPa NNW 3.2 km/h 8 km/h 43% 0.0 mm 689 W/m2
11:29 29.4 °C 15.5 °C 1014.6 hPa NNW 1.4 km/h 4.8 km/h 43% 0.0 mm 698 W/m2
11:34 29.7 °C 16.1 °C 1014.6 hPa Calm   4.8 km/h 44% 0.0 mm 707 W/m2
11:39 30.1 °C 16.5 °C 1014.6 hPa ENE 1.4 km/h 6.4 km/h 44% 0.0 mm 717 W/m2
11:44 30.2 °C 16.2 °C 1014.6 hPa ENE 3.2 km/h 8 km/h 43% 0.0 mm 722 W/m2
11:49 30.1 °C 15.8 °C 1014.6 hPa ENE 4.7 km/h 6.4 km/h 42% 0.0 mm 729 W/m2
11:54 30.2 °C 15.9 °C 1014.2 hPa East 4.7 km/h 11.3 km/h 42% 0.0 mm 740 W/m2
11:59 30.6 °C 16.2 °C 1014.2 hPa East 7.9 km/h 9.7 km/h 42% 0.0 mm 744 W/m2
12:04 30.7 °C 15.9 °C 1014.2 hPa ENE 4.7 km/h 8 km/h 41% 0.0 mm 752 W/m2
12:09 30.8 °C 16 °C 1014.2 hPa SE 9.7 km/h 9.7 km/h 41% 0.0 mm 754 W/m2
12:14 30.8 °C 16 °C 1014.2 hPa ENE 6.4 km/h 8 km/h 41% 0.0 mm 763 W/m2
12:19 30.8 °C 16 °C 1014.2 hPa ENE 4.7 km/h 9.7 km/h 41% 0.0 mm 777 W/m2
12:24 30.7 °C 15.5 °C 1014.2 hPa WNW 3.2 km/h 12.9 km/h 40% 0.0 mm 782 W/m2
12:29 30.6 °C 15.8 °C 1014.2 hPa East 6.4 km/h 11.3 km/h 41% 0.0 mm 788 W/m2
12:34 30.9 °C 15.7 °C 1014.2 hPa Calm   12.9 km/h 40% 0.0 mm 795 W/m2
12:39 31.2 °C 15.6 °C 1013.9 hPa NE 3.2 km/h 4.8 km/h 39% 0.0 mm 793 W/m2
12:44 31.2 °C 15.6 °C 1013.9 hPa Calm   4.8 km/h 39% 0.0 mm 798 W/m2
12:49 31.6 °C 16 °C 1013.9 hPa East 6.4 km/h 12.9 km/h 39% 0.0 mm 803 W/m2
12:54 31.7 °C 16 °C 1013.9 hPa East 1.4 km/h 8 km/h 39% 0.0 mm 803 W/m2
12:59 31.7 °C 16 °C 1013.9 hPa ESE 3.2 km/h 6.4 km/h 39% 0.0 mm 809 W/m2
13:04 32 °C 15.9 °C 1013.9 hPa East 3.2 km/h 14.5 km/h 38% 0.0 mm 812 W/m2
13:09 31.8 °C 15.7 °C 1013.5 hPa East 4.7 km/h 9.7 km/h 38% 0.0 mm 814 W/m2
13:14 31.9 °C 15.8 °C 1013.5 hPa ESE 6.4 km/h 14.5 km/h 38% 0.0 mm 812 W/m2
13:19 31.9 °C 15.8 °C 1013.5 hPa East 4.7 km/h 11.3 km/h 38% 0.0 mm 810 W/m2
13:24 31.8 °C 15.7 °C 1013.5 hPa East 4.7 km/h 9.7 km/h 38% 0.0 mm 816 W/m2
13:29 31.7 °C 15.6 °C 1013.5 hPa NNE 1.4 km/h 4.8 km/h 38% 0.0 mm 817 W/m2
13:34 31.9 °C 15.8 °C 1013.5 hPa East 3.2 km/h 4.8 km/h 38% 0.0 mm 821 W/m2
13:39 32.1 °C 16 °C 1013.5 hPa South 1.4 km/h 3.2 km/h 38% 0.0 mm 824 W/m2
13:44 32.4 °C 15.8 °C 1013.5 hPa NNW 6.4 km/h 6.4 km/h 37% 0.0 mm 826 W/m2
13:49 32.1 °C 16 °C 1013.2 hPa ESE 1.4 km/h 3.2 km/h 38% 0.0 mm 826 W/m2
13:54 32.3 °C 15.8 °C 1013.2 hPa ENE 3.2 km/h 11.3 km/h 37% 0.0 mm 826 W/m2
13:59 32.7 °C 16.1 °C 1013.2 hPa East 4.7 km/h 11.3 km/h 37% 0.0 mm 824 W/m2
14:04 32.6 °C 16 °C 1013.2 hPa NE 3.2 km/h 6.4 km/h 37% 0.0 mm 821 W/m2
14:09 32.6 °C 15.6 °C 1013.2 hPa ENE 1.4 km/h 8 km/h 36% 0.0 mm 821 W/m2
14:14 32.6 °C 15.6 °C 1013.2 hPa South 1.4 km/h 9.7 km/h 36% 0.0 mm 817 W/m2
14:19 32.8 °C 16.2 °C 1013.2 hPa NE 3.2 km/h 9.7 km/h 37% 0.0 mm 821 W/m2
14:25 32.8 °C 15.8 °C 1013.2 hPa ESE 1.4 km/h 14.5 km/h 36% 0.0 mm 824 W/m2
14:30 32.9 °C 15.9 °C 1013.2 hPa Calm   11.3 km/h 36% 0.0 mm 824 W/m2
14:35 33 °C 15.9 °C 1013.2 hPa ESE 3.2 km/h 6.4 km/h 36% 0.0 mm 821 W/m2
14:40 33.1 °C 15.6 °C 1013.2 hPa East 3.2 km/h 8 km/h 35% 0.0 mm 817 W/m2
14:45 33.1 °C 15.6 °C 1013.2 hPa ESE 1.4 km/h 8 km/h 35% 0.0 mm 812 W/m2
14:50 33.2 °C 15.7 °C 1012.9 hPa ESE 4.7 km/h 14.5 km/h 35% 0.0 mm 810 W/m2
14:55 33.3 °C 15.8 °C 1012.9 hPa ENE 7.9 km/h 11.3 km/h 35% 0.0 mm 807 W/m2
15:00 33.4 °C 15.8 °C 1012.9 hPa ENE 3.2 km/h 12.9 km/h 35% 0.0 mm 800 W/m2
15:05 33.2 °C 15.7 °C 1012.9 hPa NNW 13 km/h 12.9 km/h 35% 0.0 mm 798 W/m2
15:10 33.1 °C 16 °C 1012.9 hPa NNW 1.4 km/h 8 km/h 36% 0.0 mm 795 W/m2
15:15 32.9 °C 15.9 °C 1012.9 hPa SE 6.4 km/h 6.4 km/h 36% 0.0 mm 784 W/m2
15:20 33.2 °C 16.1 °C 1012.9 hPa East 9.7 km/h 12.9 km/h 36% 0.0 mm 777 W/m2
15:25 33.3 °C 15.8 °C 1012.9 hPa SSE 3.2 km/h 11.3 km/h 35% 0.0 mm 768 W/m2
15:30 33.4 °C 15.4 °C 1012.9 hPa West 1.4 km/h 6.4 km/h 34% 0.0 mm 768 W/m2
15:35 33.6 °C 15.6 °C 1012.5 hPa ENE 9.7 km/h 16.1 km/h 34% 0.0 mm 765 W/m2
15:40 33.8 °C 15.3 °C 1012.5 hPa NE 4.7 km/h 6.4 km/h 33% 0.0 mm 761 W/m2
15:45 34 °C 15.9 °C 1012.5 hPa NE 1.4 km/h 3.2 km/h 34% 0.0 mm 749 W/m2
15:50 34.1 °C 15.5 °C 1012.5 hPa NNW 4.7 km/h 6.4 km/h 33% 0.0 mm 745 W/m2
15:55 34.2 °C 15.1 °C 1012.5 hPa ENE 7.9 km/h 9.7 km/h 32% 0.0 mm 745 W/m2
16:00 34.1 °C 15.1 °C 1012.5 hPa NE 3.2 km/h 6.4 km/h 32% 0.0 mm 724 W/m2
16:05 33.9 °C 15.4 °C 1012.5 hPa ENE 4.7 km/h 9.7 km/h 33% 0.0 mm 719 W/m2
16:10 34.1 °C 15.5 °C 1012.5 hPa SE 4.7 km/h 12.9 km/h 33% 0.0 mm 705 W/m2
16:15 34.1 °C 15.5 °C 1012.2 hPa SE 1.4 km/h 3.2 km/h 33% 0.0 mm 694 W/m2
16:20 34.3 °C 15.2 °C 1012.2 hPa Calm   6.4 km/h 32% 0.0 mm 693 W/m2
16:25 34.5 °C 15.4 °C 1012.2 hPa NNW 3.2 km/h 4.8 km/h 32% 0.0 mm 684 W/m2
16:30 34.5 °C 15.4 °C 1012.2 hPa NNW 1.4 km/h 6.4 km/h 32% 0.0 mm 673 W/m2
16:35 34.6 °C 15 °C 1012.2 hPa North 1.4 km/h 4.8 km/h 31% 0.0 mm 661 W/m2
16:40 34.7 °C 15.1 °C 1012.2 hPa Calm   4.8 km/h 31% 0.0 mm 654 W/m2
16:45 34.7 °C 15.1 °C 1012.2 hPa ENE 4.7 km/h 6.4 km/h 31% 0.0 mm 643 W/m2
16:50 34.8 °C 15.2 °C 1011.9 hPa NE 3.2 km/h 3.2 km/h 31% 0.0 mm 638 W/m2
16:55 35 °C 15.8 °C 1011.9 hPa ESE 6.4 km/h 12.9 km/h 32% 0.0 mm 631 W/m2
17:00 35.1 °C 15.4 °C 1011.9 hPa ENE 4.7 km/h 6.4 km/h 31% 0.0 mm 619 W/m2
17:05 35.1 °C 15.4 °C 1011.9 hPa NNW 4.7 km/h 12.9 km/h 31% 0.0 mm 606 W/m2
17:10 35.2 °C 15.5 °C 1011.9 hPa ESE 3.2 km/h 9.7 km/h 31% 0.0 mm 592 W/m2
17:15 35.3 °C 15.6 °C 1011.9 hPa ESE 3.2 km/h 4.8 km/h 31% 0.0 mm 585 W/m2
17:20 35.3 °C 15.1 °C 1011.9 hPa East 1.4 km/h 9.7 km/h 30% 0.0 mm 571 W/m2
17:25 35.3 °C 15.6 °C 1011.9 hPa ESE 3.2 km/h 6.4 km/h 31% 0.0 mm 563 W/m2
17:30 35.4 °C 15.2 °C 1011.5 hPa SE 1.4 km/h 3.2 km/h 30% 0.0 mm 550 W/m2
17:35 35.2 °C 14.5 °C 1011.5 hPa West 3.2 km/h 4.8 km/h 29% 0.0 mm 536 W/m2
17:40 35.2 °C 15 °C 1011.5 hPa WNW 4.7 km/h 8 km/h 30% 0.0 mm 524 W/m2
17:45 35.1 °C 14.9 °C 1011.5 hPa NNW 1.4 km/h 4.8 km/h 30% 0.0 mm 512 W/m2
17:50 35 °C 14.8 °C 1011.5 hPa WNW 1.4 km/h 3.2 km/h 30% 0.0 mm 496 W/m2
17:55 35.1 °C 14.9 °C 1011.5 hPa ESE 3.2 km/h 9.7 km/h 30% 0.0 mm 485 W/m2
18:00 35.1 °C 15.4 °C 1011.5 hPa North 1.4 km/h 4.8 km/h 31% 0.0 mm 471 W/m2
18:05 35.2 °C 15 °C 1011.5 hPa NW 1.4 km/h 9.7 km/h 30% 0.0 mm 455 W/m2
18:10 35.1 °C 14.9 °C 1011.5 hPa East 4.7 km/h 11.3 km/h 30% 0.0 mm 443 W/m2
18:15 34.9 °C 14.7 °C 1011.5 hPa WSW 1.4 km/h 3.2 km/h 30% 0.0 mm 429 W/m2
18:20 34.8 °C 15.2 °C 1011.5 hPa Calm   11.3 km/h 31% 0.0 mm 415 W/m2
18:25 34.8 °C 15.2 °C 1011.5 hPa ENE 3.2 km/h 3.2 km/h 31% 0.0 mm 403 W/m2
18:30 34.8 °C 14.7 °C 1011.2 hPa ENE 6.4 km/h 6.4 km/h 30% 0.0 mm 388 W/m2
18:35 34.8 °C 14.7 °C 1011.2 hPa East 1.4 km/h 3.2 km/h 30% 0.0 mm 369 W/m2
18:40 34.8 °C 15.2 °C 1011.2 hPa Calm   4.8 km/h 31% 0.0 mm 355 W/m2
18:45 34.8 °C 14.7 °C 1011.2 hPa NE 1.4 km/h 3.2 km/h 30% 0.0 mm 343 W/m2
18:50 34.8 °C 15.2 °C 1011.2 hPa Calm   3.2 km/h 31% 0.0 mm 322 W/m2
18:55 34.9 °C 14.7 °C 1011.2 hPa ESE 4.7 km/h 6.4 km/h 30% 0.0 mm 295 W/m2
19:00 34.8 °C 14.7 °C 1011.2 hPa East 3.2 km/h 3.2 km/h 30% 0.0 mm 234 W/m2
19:05 34.8 °C 15.2 °C 1011.2 hPa East 1.4 km/h 1.6 km/h 31% 0.0 mm 51 W/m2
19:10 34.9 °C 14.7 °C 1011.2 hPa Calm   3.2 km/h 30% 0.0 mm 49 W/m2
19:15 34.9 °C 15.3 °C 1011.2 hPa Calm   3.2 km/h 31% 0.0 mm 47 W/m2
19:20 34.9 °C 14.7 °C 1011.2 hPa Calm   3.2 km/h 30% 0.0 mm 46 W/m2
19:25 35.1 °C 14.4 °C 1011.2 hPa WSW 3.2 km/h 3.2 km/h 29% 0.0 mm 44 W/m2
19:30 35.1 °C 14.9 °C 1011.2 hPa Calm   1.6 km/h 30% 0.0 mm 40 W/m2
19:35 34.9 °C 14.7 °C 1011.2 hPa WNW 1.4 km/h 4.8 km/h 30% 0.0 mm 39 W/m2
19:40 34.8 °C 14.1 °C 1011.2 hPa WSW 3.2 km/h 4.8 km/h 29% 0.0 mm 37 W/m2
19:45 34.6 °C 15.5 °C 1011.2 hPa Calm   1.6 km/h 32% 0.0 mm 35 W/m2
19:50 34.6 °C 15.5 °C 1011.2 hPa Calm     32% 0.0 mm 33 W/m2
19:55 34.4 °C 15.8 °C 1011.2 hPa Calm   1.6 km/h 33% 0.0 mm 32 W/m2
20:00 34.4 °C 16.7 °C 1011.2 hPa WSW 1.4 km/h 3.2 km/h 35% 0.0 mm 32 W/m2
20:05 34.3 °C 16.2 °C 1011.2 hPa WSW 1.4 km/h 3.2 km/h 34% 0.0 mm 30 W/m2
20:10 34 °C 15.9 °C 1011.2 hPa Calm   3.2 km/h 34% 0.0 mm 28 W/m2
20:15 33.6 °C 16 °C 1011.2 hPa WSW 1.4 km/h 3.2 km/h 35% 0.0 mm 26 W/m2
20:21 33.3 °C 15.8 °C 1011.2 hPa WSW 1.4 km/h 3.2 km/h 35% 0.0 mm 25 W/m2
20:26 33 °C 15.9 °C 1011.2 hPa WSW 1.4 km/h 1.6 km/h 36% 0.0 mm 23 W/m2
20:31 32.8 °C 16.2 °C 1011.2 hPa WSW 1.4 km/h 3.2 km/h 37% 0.0 mm 21 W/m2
20:36 32.5 °C 15.9 °C 1011.2 hPa Calm   3.2 km/h 37% 0.0 mm 18 W/m2
20:41 32.2 °C 16.1 °C 1011.2 hPa Calm   3.2 km/h 38% 0.0 mm 16 W/m2
20:46 31.8 °C 15.7 °C 1011.2 hPa Calm   1.6 km/h 38% 0.0 mm 14 W/m2
20:51 31.5 °C 15.5 °C 1011.2 hPa Calm   3.2 km/h 38% 0.0 mm 12 W/m2
20:56 31 °C 15 °C 1011.2 hPa WSW 3.2 km/h 3.2 km/h 38% 0.0 mm 9 W/m2
21:01 30.5 °C 15.8 °C 1011.2 hPa Calm   1.6 km/h 41% 0.0 mm 5 W/m2
21:06 30.1 °C 15.4 °C 1011.2 hPa Calm     41% 0.0 mm 0 W/m2
21:11 29.7 °C 15.4 °C 1011.2 hPa Calm     42% 0.0 mm 0 W/m2
21:16 29.3 °C 15.1 °C 1011.2 hPa Calm     42% 0.0 mm 0 W/m2
21:21 28.9 °C 15.4 °C 1011.2 hPa Calm   1.6 km/h 44% 0.0 mm 0 W/m2
21:26 28.6 °C 15.2 °C 1011.2 hPa Calm   3.2 km/h 44% 0.0 mm 0 W/m2
21:31 28.2 °C 15.1 °C 1011.2 hPa Calm   1.6 km/h 45% 0.0 mm 0 W/m2
21:36 28 °C 15.3 °C 1011.5 hPa Calm     46% 0.0 mm 0 W/m2
21:41 27.7 °C 15 °C 1011.5 hPa WSW 1.4 km/h 1.6 km/h 46% 0.0 mm 0 W/m2
21:46 27.5 °C 14.8 °C 1011.5 hPa Calm     46% 0.0 mm 0 W/m2
21:51 27.3 °C 15 °C 1011.5 hPa Calm     47% 0.0 mm 0 W/m2
21:56 27.1 °C 14.8 °C 1011.5 hPa Calm     47% 0.0 mm 0 W/m2
22:01 26.9 °C 15 °C 1011.5 hPa Calm     48% 0.0 mm 0 W/m2
22:06 26.7 °C 14.8 °C 1011.5 hPa Calm     48% 0.0 mm 0 W/m2
22:11 26.6 °C 14.7 °C 1011.5 hPa Calm     48% 0.0 mm 0 W/m2
22:16 26.4 °C 14.8 °C 1011.5 hPa Calm     49% 0.0 mm 0 W/m2
22:21 26.2 °C 14.6 °C 1011.2 hPa Calm     49% 0.0 mm 0 W/m2
22:26 26.1 °C 14.9 °C 1011.2 hPa Calm     50% 0.0 mm 0 W/m2
22:31 25.9 °C 14.7 °C 1011.2 hPa Calm     50% 0.0 mm 0 W/m2
22:36 25.8 °C 14.6 °C 1011.2 hPa Calm   1.6 km/h 50% 0.0 mm 0 W/m2
22:41 25.7 °C 14.5 °C 1011.2 hPa Calm     50% 0.0 mm 0 W/m2
22:46 25.5 °C 14.3 °C 1011.2 hPa Calm     50% 0.0 mm 0 W/m2
22:51 25.4 °C 14.5 °C 1011.5 hPa Calm     51% 0.0 mm 0 W/m2
22:56 25.3 °C 14.4 °C 1011.5 hPa Calm     51% 0.0 mm 0 W/m2
23:01 25.2 °C 14.6 °C 1011.5 hPa Calm   1.6 km/h 52% 0.0 mm 0 W/m2
23:06 25.1 °C 14.6 °C 1011.5 hPa Calm   1.6 km/h 52% 0.0 mm 0 W/m2
23:11 24.9 °C 14.7 °C 1011.5 hPa Calm     53% 0.0 mm 0 W/m2
23:16 24.8 °C 14.6 °C 1011.5 hPa Calm     53% 0.0 mm 0 W/m2
23:21 24.7 °C 14.5 °C 1011.5 hPa Calm   1.6 km/h 53% 0.0 mm 0 W/m2
23:26 24.6 °C 14.7 °C 1011.5 hPa Calm   1.6 km/h 54% 0.0 mm 0 W/m2
23:31 24.4 °C 14.5 °C 1011.5 hPa Calm     54% 0.0 mm 0 W/m2
23:36 24.3 °C 14.4 °C 1011.5 hPa Calm   1.6 km/h 54% 0.0 mm 0 W/m2
23:41 24.2 °C 14.3 °C 1011.5 hPa Calm     54% 0.0 mm 0 W/m2
23:46 24.1 °C 14.5 °C 1011.5 hPa Calm     55% 0.0 mm 0 W/m2
23:51 24 °C 14.7 °C 1011.5 hPa Calm     56% 0.0 mm 0 W/m2
23:56 23.9 °C 14.6 °C 1011.2 hPa Calm     56% 0.0 mm 0 W/m2
Juneau County Weather
Compliments of Weather Underground - 4 mb